| time (UTC) | temp F | wind direction | speed MPH | gust MPH | rain 1hr in | rain 24hr in | rain mn in | humidity % | barometer mb |
| 20260505003503 | 64 | 298 | 0.0 | 1.0 | 0.00 | 0.00 | 0.00 | 48 | 1003.2 |
| 20260505003002 | 64 | 298 | 0.0 | 1.0 | 0.00 | 0.00 | 0.00 | 47 | 1003.3 |
| 20260505002503 | 64 | 298 | 1.0 | 2.0 | 0.00 | 0.00 | 0.00 | 49 | 1003.3 |
| 20260505002002 | 65 | 306 | 1.0 | 2.0 | 0.00 | 0.00 | 0.00 | 49 | 1003.3 |
| 20260505000003 | 68 | 169 | 0.0 | 0.0 | 0.00 | 0.00 | 0.00 | 41 | 1003.1 |
| 20260504235502 | 69 | 217 | 0.0 | 0.0 | 0.00 | 0.00 | 0.00 | 40 | 1003.0 |
| 20260504235003 | 70 | 217 | 0.0 | 0.0 | 0.00 | 0.00 | 0.00 | 39 | 1003.0 |
| 20260504234502 | 70 | 217 | 0.0 | 0.0 | 0.00 | 0.00 | 0.00 | 39 | 1003.1 |
| 20260504234003 | 71 | 217 | 0.0 | 0.0 | 0.00 | 0.00 | 0.00 | 38 | 1003.1 |
| 20260504233503 | 72 | 217 | 0.0 | 0.0 | 0.00 | 0.00 | 0.00 | 37 | 1003.1 |
| 20260504233003 | 73 | 246 | 0.0 | 2.0 | 0.00 | 0.00 | 0.00 | 37 | 1003.1 |
| 20260504232502 | 73 | 179 | 0.0 | 1.0 | 0.00 | 0.00 | 0.00 | 36 | 1003.1 |
| 20260504232003 | 73 | 143 | 0.0 | 3.0 | 0.00 | 0.00 | 0.00 | 36 | 1003.0 |
| 20260504231503 | 73 | 205 | 2.0 | 5.0 | 0.00 | 0.00 | 0.00 | 35 | 1003.0 |
| 20260504231003 | 73 | 225 | 0.0 | 3.0 | 0.00 | 0.00 | 0.00 | 36 | 1003.0 |
| 20260504230503 | 73 | 224 | 2.0 | 3.0 | 0.00 | 0.00 | 0.00 | 35 | 1003.0 |
| 20260504225503 | 75 | 216 | 2.0 | 3.0 | 0.00 | 0.00 | 0.00 | 35 | 1003.0 |
| 20260504225003 | 76 | 166 | 1.0 | 5.0 | 0.00 | 0.00 | 0.00 | 33 | 1002.9 |
| 20260504224502 | 76 | 203 | 2.0 | 3.0 | 0.00 | 0.00 | 0.00 | 33 | 1002.8 |
| 20260504224003 | 76 | 154 | 2.0 | 8.0 | 0.00 | 0.00 | 0.00 | 33 | 1002.9 |
| 20260504223502 | 76 | 246 | 1.0 | 3.0 | 0.00 | 0.00 | 0.00 | 35 | 1002.9 |
| 20260504223002 | 76 | 259 | 3.0 | 9.0 | 0.00 | 0.00 | 0.00 | 34 | 1002.9 |
| 20260504222503 | 76 | 152 | 1.0 | 5.0 | 0.00 | 0.00 | 0.00 | 34 | 1003.0 |
| 20260504222003 | 76 | 226 | 2.0 | 8.0 | 0.00 | 0.00 | 0.00 | 33 | 1003.0 |
| 20260504221502 | 76 | 205 | 3.0 | 7.0 | 0.00 | 0.00 | 0.00 | 34 | 1003.0 |
| 20260504220503 | 76 | 208 | 4.0 | 10.0 | 0.00 | 0.00 | 0.00 | 32 | 1003.1 |
| 20260504220003 | 76 | 244 | 3.0 | 7.0 | 0.00 | 0.00 | 0.00 | 34 | 1003.0 |
| 20260504215503 | 76 | 203 | 2.0 | 9.0 | 0.00 | 0.00 | 0.00 | 34 | 1003.1 |
| 20260504215003 | 76 | 233 | 3.0 | 6.0 | 0.00 | 0.00 | 0.00 | 35 | 1003.1 |
| 20260504214503 | 76 | 220 | 1.0 | 7.0 | 0.00 | 0.00 | 0.00 | 36 | 1003.3 |
| 20260504214003 | 76 | 225 | 5.0 | 12.0 | 0.00 | 0.00 | 0.00 | 35 | 1003.2 |
| 20260504213503 | 76 | 233 | 2.0 | 6.0 | 0.00 | 0.00 | 0.00 | 37 | 1003.2 |
| 20260504213003 | 76 | 286 | 5.0 | 14.0 | 0.00 | 0.00 | 0.00 | 33 | 1003.2 |
| 20260504212503 | 76 | 309 | 2.0 | 9.0 | 0.00 | 0.00 | 0.00 | 35 | 1003.3 |
| 20260504212002 | 77 | 223 | 2.0 | 8.0 | 0.00 | 0.00 | 0.00 | 36 | 1003.2 |
| 20260504211503 | 76 | 198 | 2.0 | 8.0 | 0.00 | 0.00 | 0.00 | 36 | 1003.4 |
| 20260504211003 | 76 | 245 | 2.0 | 6.0 | 0.00 | 0.00 | 0.00 | 37 | 1003.5 |
| 20260504210003 | 75 | 245 | 6.0 | 13.0 | 0.00 | 0.00 | 0.00 | 35 | 1003.7 |
| 20260504205503 | 76 | 301 | 4.0 | 14.0 | 0.00 | 0.00 | 0.00 | 34 | 1003.6 |
| 20260504205003 | 76 | 244 | 5.0 | 12.0 | 0.00 | 0.00 | 0.00 | 36 | 1003.7 |
| 20260504204503 | 76 | 223 | 5.0 | 10.0 | 0.00 | 0.00 | 0.00 | 37 | 1003.7 |
| 20260504204003 | 76 | 193 | 2.0 | 8.0 | 0.00 | 0.00 | 0.00 | 38 | 1003.6 |
| 20260504203503 | 75 | 215 | 3.0 | 9.0 | 0.00 | 0.00 | 0.00 | 36 | 1003.7 |
| 20260504203003 | 75 | 235 | 3.0 | 8.0 | 0.00 | 0.00 | 0.00 | 37 | 1003.7 |
| 20260504202503 | 75 | 191 | 3.0 | 9.0 | 0.00 | 0.00 | 0.00 | 35 | 1003.8 |
| 20260504201003 | 75 | 174 | 3.0 | 13.0 | 0.00 | 0.00 | 0.00 | 39 | 1004.0 |
| 20260504200503 | 75 | 249 | 6.0 | 13.0 | 0.00 | 0.00 | 0.00 | 37 | 1004.0 |
| 20260504200002 | 74 | 226 | 5.0 | 12.0 | 0.00 | 0.00 | 0.00 | 38 | 1004.1 |
| 20260504195503 | 75 | 260 | 6.0 | 13.0 | 0.00 | 0.00 | 0.00 | 35 | 1004.2 |
| 20260504194503 | 75 | 252 | 4.0 | 12.0 | 0.00 | 0.00 | 0.00 | 37 | 1004.3 |
| 20260504194003 | 75 | 214 | 5.0 | 13.0 | 0.00 | 0.00 | 0.00 | 38 | 1004.4 |
| 20260504193503 | 75 | 229 | 5.0 | 15.0 | 0.00 | 0.00 | 0.00 | 38 | 1004.4 |
| 20260504193003 | 74 | 261 | 5.0 | 10.0 | 0.00 | 0.00 | 0.00 | 40 | 1004.5 |
| 20260504192503 | 74 | 289 | 3.0 | 13.0 | 0.00 | 0.00 | 0.00 | 41 | 1004.5 |
| 20260504192003 | 73 | 281 | 6.0 | 22.0 | 0.00 | 0.00 | 0.00 | 40 | 1004.4 |
| 20260504191503 | 74 | 248 | 6.0 | 12.0 | 0.00 | 0.00 | 0.00 | 38 | 1004.6 |
| 20260504191003 | 74 | 251 | 3.0 | 10.0 | 0.00 | 0.00 | 0.00 | 41 | 1004.7 |
| 20260504190003 | 73 | 238 | 1.0 | 10.0 | 0.00 | 0.00 | 0.00 | 44 | 1004.8 |
| 20260504185503 | 72 | 298 | 7.0 | 20.0 | 0.00 | 0.00 | 0.00 | 40 | 1004.8 |
| 20260504184503 | 73 | 250 | 4.0 | 14.0 | 0.00 | 0.00 | 0.00 | 43 | 1005.1 |
| 20260504184003 | 72 | 184 | 5.0 | 13.0 | 0.00 | 0.00 | 0.00 | 43 | 1005.1 |
| 20260504183503 | 73 | 260 | 5.0 | 12.0 | 0.00 | 0.00 | 0.00 | 43 | 1005.3 |
| 20260504183004 | 72 | 196 | 5.0 | 12.0 | 0.00 | 0.00 | 0.00 | 44 | 1005.3 |
| 20260504182503 | 73 | 255 | 5.0 | 14.0 | 0.00 | 0.00 | 0.00 | 44 | 1005.4 |
| 20260504182003 | 73 | 217 | 3.0 | 14.0 | 0.00 | 0.00 | 0.00 | 47 | 1005.3 |
| 20260504181503 | 72 | 185 | 3.0 | 15.0 | 0.00 | 0.00 | 0.00 | 46 | 1005.3 |
| 20260504181004 | 72 | 210 | 5.0 | 15.0 | 0.00 | 0.00 | 0.00 | 43 | 1005.3 |
| 20260504180503 | 72 | 233 | 5.0 | 13.0 | 0.00 | 0.00 | 0.00 | 44 | 1005.4 |
| 20260504180003 | 72 | 276 | 5.0 | 16.0 | 0.00 | 0.00 | 0.00 | 43 | 1005.4 |
| 20260504175503 | 72 | 200 | 3.0 | 12.0 | 0.00 | 0.00 | 0.00 | 47 | 1005.5 |
| 20260504175003 | 72 | 190 | 5.0 | 12.0 | 0.00 | 0.00 | 0.00 | 45 | 1005.4 |
| 20260504174504 | 72 | 234 | 2.0 | 13.0 | 0.00 | 0.00 | 0.00 | 46 | 1005.6 |
| 20260504174003 | 72 | 258 | 4.0 | 12.0 | 0.00 | 0.00 | 0.00 | 45 | 1005.6 |
| 20260504173503 | 72 | 224 | 3.0 | 9.0 | 0.00 | 0.00 | 0.00 | 45 | 1005.6 |
| 20260504173003 | 72 | 227 | 2.0 | 8.0 | 0.00 | 0.00 | 0.00 | 46 | 1005.7 |
| 20260504172503 | 72 | 213 | 3.0 | 7.0 | 0.00 | 0.00 | 0.00 | 47 | 1005.7 |
| 20260504172004 | 71 | 173 | 3.0 | 6.0 | 0.00 | 0.00 | 0.00 | 49 | 1005.7 |
| 20260504171003 | 70 | 252 | 3.0 | 5.0 | 0.00 | 0.00 | 0.00 | 49 | 1005.7 |
| 20260504170504 | 70 | 205 | 2.0 | 12.0 | 0.00 | 0.00 | 0.00 | 48 | 1005.9 |
| 20260504150504 | 66 | 191 | 2.0 | 10.0 | 0.00 | 0.00 | 0.00 | 50 | 1006.7 |
| 20260504141003 | 63 | 239 | 1.0 | 7.0 | 0.00 | 0.00 | 0.00 | 53 | 1006.7 |
| 20260504140504 | 63 | 225 | 5.0 | 12.0 | 0.00 | 0.00 | 0.00 | 50 | 1006.8 |
| 20260504110503 | 52 | 159 | 1.0 | 3.0 | 0.00 | 0.00 | 0.00 | 60 | 1007.4 |
| 20260504100503 | 51 | 205 | 1.0 | 5.0 | 0.00 | 0.00 | 0.00 | 62 | 1007.4 |
| 20260504082003 | 50 | 170 | 1.0 | 3.0 | 0.00 | 0.00 | 0.00 | 64 | 1007.9 |
| 20260504080503 | 50 | 217 | 1.0 | 3.0 | 0.00 | 0.00 | 0.00 | 64 | 1008.0 |
| 20260504050503 | 52 | 220 | 0.0 | 1.0 | 0.00 | 0.00 | 0.00 | 62 | 1009.1 |
| 20260504050003 | 52 | 210 | 1.0 | 3.0 | 0.00 | 0.00 | 0.00 | 61 | 1009.1 |
| 20260504045503 | 52 | 211 | 1.0 | 3.0 | 0.00 | 0.00 | 0.00 | 61 | 1009.2 |
| 20260504045004 | 53 | 192 | 1.0 | 3.0 | 0.00 | 0.00 | 0.00 | 61 | 1009.1 |
| 20260504044503 | 53 | 236 | 2.0 | 3.0 | 0.00 | 0.00 | 0.00 | 60 | 1009.2 |
| 20260504044003 | 53 | 132 | 0.0 | 2.0 | 0.00 | 0.00 | 0.00 | 60 | 1009.1 |
| 20260504043503 | 53 | 222 | 1.0 | 3.0 | 0.00 | 0.00 | 0.00 | 60 | 1009.1 |
| 20260504043003 | 53 | 206 | 1.0 | 5.0 | 0.00 | 0.00 | 0.00 | 61 | 1009.1 |
| 20260504042503 | 53 | 164 | 1.0 | 5.0 | 0.00 | 0.00 | 0.00 | 61 | 1009.1 |
| 20260504042003 | 53 | 92 | 0.0 | 2.0 | 0.00 | 0.00 | 0.00 | 60 | 1009.1 |
| 20260504041503 | 53 | 241 | 1.0 | 3.0 | 0.00 | 0.00 | 0.00 | 60 | 1009.1 |
| 20260504040003 | 53 | 226 | 2.0 | 5.0 | 0.00 | 0.00 | 0.00 | 60 | 1009.2 |
| 20260504035003 | 53 | 245 | 2.0 | 9.0 | 0.00 | 0.00 | 0.00 | 61 | 1009.1 |
| 20260504034503 | 53 | 133 | 1.0 | 3.0 | 0.00 | 0.00 | 0.00 | 62 | 1009.1 |
| 20260504034003 | 52 | 233 | 1.0 | 3.0 | 0.00 | 0.00 | 0.00 | 63 | 1009.1 |
| 20260504033003 | 52 | 234 | 0.0 | 3.0 | 0.00 | 0.00 | 0.00 | 63 | 1009.2 |
| 20260504032503 | 52 | 207 | 0.0 | 0.0 | 0.00 | 0.00 | 0.00 | 64 | 1009.1 |
| 20260504032004 | 52 | 203 | 1.0 | 3.0 | 0.00 | 0.00 | 0.00 | 64 | 1009.2 |
| 20260504031503 | 52 | 118 | 0.0 | 1.0 | 0.00 | 0.00 | 0.00 | 64 | 1009.2 |
| 20260504031003 | 52 | 233 | 0.0 | 1.0 | 0.00 | 0.00 | 0.00 | 63 | 1009.3 |
| 20260504030503 | 53 | 243 | 0.0 | 1.0 | 0.00 | 0.00 | 0.00 | 63 | 1009.4 |
| 20260504030003 | 53 | 221 | 0.0 | 2.0 | 0.00 | 0.00 | 0.00 | 63 | 1009.4 |
| 20260504025503 | 53 | 158 | 0.0 | 3.0 | 0.00 | 0.00 | 0.00 | 62 | 1009.4 |
| 20260504025003 | 53 | 130 | 0.0 | 3.0 | 0.00 | 0.00 | 0.00 | 62 | 1009.4 |
| 20260504024504 | 53 | 232 | 1.0 | 5.0 | 0.00 | 0.00 | 0.00 | 63 | 1009.4 |
| 20260504024003 | 53 | 210 | 2.0 | 3.0 | 0.00 | 0.00 | 0.00 | 63 | 1009.5 |
| 20260504023504 | 52 | 189 | 1.0 | 5.0 | 0.00 | 0.00 | 0.00 | 64 | 1009.5 |
| 20260504023003 | 52 | 220 | 1.0 | 3.0 | 0.00 | 0.00 | 0.00 | 65 | 1009.6 |
| 20260504022503 | 52 | 253 | 1.0 | 3.0 | 0.00 | 0.00 | 0.00 | 66 | 1009.6 |
| 20260504021503 | 51 | 280 | 0.0 | 2.0 | 0.00 | 0.00 | 0.00 | 71 | 1009.7 |
| 20260504021003 | 51 | 255 | 1.0 | 6.0 | 0.00 | 0.00 | 0.00 | 71 | 1009.7 |
| 20260504020003 | 51 | 211 | 0.0 | 2.0 | 0.00 | 0.00 | 0.00 | 73 | 1009.7 |
| 20260504015503 | 51 | 219 | 0.0 | 1.0 | 0.00 | 0.00 | 0.00 | 74 | 1009.7 |
| 20260504015003 | 51 | 225 | 0.0 | 1.0 | 0.00 | 0.00 | 0.00 | 74 | 1009.7 |
| 20260504014503 | 51 | 123 | 0.0 | 5.0 | 0.00 | 0.00 | 0.00 | 74 | 1009.7 |
| 20260504014003 | 51 | 256 | 1.0 | 3.0 | 0.00 | 0.00 | 0.00 | 75 | 1009.7 |
| 20260504013503 | 50 | 228 | 2.0 | 6.0 | 0.00 | 0.00 | 0.00 | 77 | 1009.8 |
| 20260504013004 | 50 | 244 | 1.0 | 7.0 | 0.00 | 0.00 | 0.00 | 80 | 1010.0 |
| 20260504012503 | 49 | 263 | 1.0 | 8.0 | 0.00 | 0.00 | 0.00 | 83 | 1010.1 |
| 20260504011504 | 49 | 250 | 0.0 | 1.0 | 0.00 | 0.00 | 0.00 | 83 | 1010.3 |
| 20260504011003 | 49 | 252 | 0.0 | 2.0 | 0.00 | 0.00 | 0.00 | 82 | 1010.3 |
| 20260504010504 | 49 | 218 | 1.0 | 3.0 | 0.00 | 0.00 | 0.00 | 82 | 1010.3 |
| 20260504005504 | 50 | 260 | 1.0 | 8.0 | 0.00 | 0.00 | 0.00 | 82 | 1010.2 |
| 20260504005004 | 50 | 229 | 2.0 | 5.0 | 0.00 | 0.00 | 0.00 | 82 | 1010.2 |
| 20260504004503 | 50 | 228 | 0.0 | 2.0 | 0.00 | 0.00 | 0.00 | 81 | 1010.4 |
| 20260504004004 | 50 | 301 | 1.0 | 6.0 | 0.00 | 0.00 | 0.00 | 80 | 1010.5 |